Starlink 3934

operational
NORAD ID: 52675 Int'l Des: 2022-053 Owner: SPXS Country: US Constellation: starlink
LEOCIRCULAR

About Starlink 3934

Description loading...

Live Position

Loading 3D Globe...

Upcoming Passes

Altitude History

Altitude vs Time

uPlot chart will show altitude changes over time

Two-Line Element Set

1 52675U 22053V 26034.45339501 -.00000120 00000-0 10580-4 0 9994
2 52675 53.2182 297.8142 0001372 86.1093 274.0056 15.08837637206001
Epoch: Feb 3, 2026 • Age: 16 hours

Current Status

Altitude 543.7 km
Velocity 7.60 km/s
Sub-Earth Point 45.68°N, 164.21°E
Launch Date May 18, 2022
Age 3.7 years
Type internet

Technical Details

Classification Payload
Mass 297.00 kg
Dry Mass 275.00 kg
Total Mass 297.00 kg
Length 0.20 m
Diameter 2.80 m
Span 9.00 m
Shape Box + pan
Manufacturer SPXS
Bus Type Starlink
Phase Status In Orbit
Owner/State SPXS/US

Large Constellations

Loading constellations...